Flag for U.S.A. Weather past 2 weeks in Worcester, Massachusetts, U.S.A.

Now
60 °F

Clear.


Feels Like: 60 °F
Forecast: 57 / 81 °F
Wind: 6 mph from West

Location: Worcester Regional Airport

Current Time: Jun 30, 2015 at 5:05:07 AM

Latest Report: Jun 30, 2015 at 3:54 AM


Visibility: 10 mi

Pressure: 29.98 "Hg

Humidity: 83%

Dew point: 55 °F

Location of WorcesterLocation

Historic Weather in Worcester — Graph

°F

Worcester temperature yesterday

Maximum temperature yesterday: 71 °F (at 5:54 PM)
Minimum temperature yesterday: 51 °F (at 12:54 AM)
Average temperature yesterday: 61 °F

Past Weeks' High & Low Weather Summary

 TemperatureHumidityPressure
High85 °F (Jun 23, 2:54 PM)97% (Jun 16, 7:54 AM)30.18 "Hg (Jun 16, 7:54 AM)
Low50 °F (Jun 28, 10:54 PM)34% (Jun 19, 5:54 PM)29.66 "Hg (Jun 21, 4:54 PM)
Average65 °F70%29.96 "Hg
* Reported Jun 15 3:54 AM — Jun 30 3:54 AM, Worcester, Weather by CustomWeather, © 2015

Note: Actual official high and low records may vary slightly from our data, if they occured in-between our weather recording intervals... More about our weather records

Advertising

Worcester weather history for previous 24 hours

 ConditionsComfort  
Time TempWeatherWind HumidityBarometerVisibility
3:54 AM
Tue, Jun 30
60 °FClear.6 mph83%29.98 "Hg10 mi
2:54 AM60 °FClear.7 mph83%29.97 "Hg10 mi
1:54 AM60 °FClear.9 mph86%29.96 "Hg10 mi
12:54 AM61 °FClear.7 mph83%29.96 "Hg10 mi
11:54 PM
Mon, Jun 29
61 °FClear.7 mph87%29.96 "Hg10 mi
10:54 PM64 °FPassing clouds.8 mph78%29.95 "Hg10 mi
9:54 PM63 °FOvercast.5 mph84%29.94 "Hg10 mi
8:54 PM64 °FPassing clouds.6 mph81%29.92 "Hg10 mi
7:54 PM67 °FPartly sunny.6 mph73%29.91 "Hg10 mi
6:54 PM68 °FPartly sunny.7 mph70%29.90 "Hg10 mi
5:54 PM71 °FScattered clouds.10 mph59%29.89 "Hg10 mi
4:54 PM69 °FMostly cloudy.7 mph66%29.88 "Hg10 mi
3:54 PM70 °FCloudy.8 mph64%29.87 "Hg10 mi
3:02 PM69 °FMore clouds than sun.7 mph68%29.87 "Hg10 mi
1:54 PM69 °FMostly cloudy.9 mph66%29.86 "Hg10 mi
12:54 PM68 °FOvercast.12 mph68%29.87 "Hg10 mi
11:54 AM65 °FOvercast.8 mph73%29.87 "Hg10 mi
10:54 AM64 °FOvercast.9 mph73%29.84 "Hg10 mi
9:54 AM61 °FLow clouds.10 mph83%29.84 "Hg10 mi
8:54 AM58 °FLow clouds.12 mph90%29.84 "Hg10 mi
7:54 AM55 °FLow clouds.7 mph90%29.83 "Hg3 mi
6:54 AM53 °FFog.6 mph89%29.84 "Hg3 mi
5:54 AM52 °FFog.6 mph89%29.82 "Hg2 mi
5:01 AM51 °FFog.6 mph92%29.80 "Hg3 mi
Weather by CustomWeather, © 2015

See weather overviewHow to use our weather pages